BEIDOU-3 M14 (C33)

Last updated on Tue Mar 10 2026 00:03:30 GMT+0000 (Coordinated Universal Time)

1 43623U 18072B 26067.99064616 -.00000027 00000+0 00000+0 0 9996 2 43623 56.5395 65.9583 0006472 329.1596 30.8160 1.86231122 50787
UTC large
Height (km)
Speed (km/s)
/
Latitude / Longitude
Inclination (degrees)
Orbital Period (minutes)
Azimuth
Elevation
Range (km)
Doppler Factor

Next 0 passes for location: London (51.5072 / 0.1276)

Sorry there are no passes over London.